Terminal Aerodrome Forecast
Issued by NWS Spokane, WA

Home | Current Version | Previous Version | Text Only | Print | Product List | Glossary On
Versions: 1 2 3 4 5 6 7 8 9 10 11 12 13 14 15 16 17 18 19 20 21 22 23 24 25 26 27 28 29 30 31 32 33 34 35 36 37 38 39 40 41 42 43 44 45 46 47 48 49 50
000
FTUS46 KOTX 281142 CCA
TAFEAT
TAF COR
KEAT 281142Z 2812/2912 07008KT P6SM SCT060 WS020/25040KT
     FM281800 07006KT P6SM VCSH SCT025 BKN050 OVC100
     FM282200 30014G30KT P6SM VCSH SCT040 BKN050 BKN120
     FM290300 31011KT P6SM SCT050 BKN120
      AMD LTD TO CLD AND WIND=

USA.gov is the U.S. government's official web portal to all federal, state and local government web resources and services.